Regional Weather Roundup
Issued by NWS Cleveland, OH

Home | Current Version | Previous Version | Graphics & Text | Print | Product List | Glossary On
Versions: 1 2 3 4 5 6 7 8 9 10 11 12 13 14 15 16 17 18 19 20 21 22 23 24 25 26 27 28 29 30 31 32 33 34 35 36 37 38 39 40 41 42 43 44 45 46 47 48 49 50
000
ASUS41 KCLE 270210
RWRCLE
OHIO REGIONAL WEATHER ROUNDUP
NATIONAL WEATHER SERVICE CLEVELAND, OH
900 PM EST SUN FEB 26 2017

NOTE: "FAIR" INDICATES FEW OR NO CLOUDS BELOW 12,000 FEET WITH NO
SIGNIFICANT WEATHER AND/OR OBSTRUCTIONS TO VISIBILITY.

OHZ001>008-015>018-024>027-034-035-043-044-270300-
   NORTHWEST OHIO

CITY           SKY/WX    TMP DP  RH WIND       PRES   REMARKS
DEFIANCE       CLEAR     35  20  54 S8        30.09R WCI  29
FINDLAY        CLEAR     35  22  58 S10       30.10R WCI  27
TOLEDO EXPRESS CLEAR     38  20  48 SW12      30.08R
TOLEDO EXEC    CLEAR     39  21  48 SW13      30.09R
LIMA           CLEAR     37  21  52 S10       30.11R
$$

OHZ009>014-019>023-028>033-038-089-270300-
   NORTHEAST OHIO

CITY           SKY/WX    TMP DP  RH WIND       PRES   REMARKS
CLE-HOPKINS    PTCLDY    38  19  46 S12G21    30.14R
CLE-LAKEFRONT  CLEAR     39  18  42 S16       30.11R
CUY CO. ARPT   PTCLDY    37  21  52 SW14      30.11R
LORAIN-ELYRIA  CLEAR     36  18  48 SW13      30.12R
ASHTABULA      CLEAR     36  19  50 S15G21    30.12R
AKRON-CANTON   PTCLDY    35  17  47 SW16      30.13F WCI  25
WOOSTER        CLEAR     34  20  56 SW9       30.14R WCI  27
MANSFIELD      CLEAR     35  20  54 S14       30.12R WCI  26
YOUNGSTOWN     MOCLDY    34  17  50 S7        30.14R WCI  28
$$

OHZ042-051>053-060>062-070>072-077>081-270300-
  SOUTHWEST OHIO

CITY           SKY/WX    TMP DP  RH WIND       PRES   REMARKS
CINC-COVINGTON CLOUDY    40  21  46 S7        30.16S
CINC-LUNKEN    CLOUDY    41  23  48 S6        30.19S
HAMILTON       CLOUDY    44  17  33 S5        30.18R
DAYTON         MOCLDY    40  16  37 S8        30.15R
WRIGHT-PAT AFB MOCLDY    39  15  37 S7        30.15S
DAYTON GENERAL CLOUDY    39  18  42 S6        30.15R
WILMINGTON     CLEAR     38  23  55 S8        30.16R
$$

OHZ036-037-039>041-045>050-054>059-063>069-073>076-082>088-270300-
  CENTRAL AND SOUTHEAST OHIO

CITY           SKY/WX    TMP DP  RH WIND       PRES   REMARKS
COLUMBUS       MOCLDY    40  19  43 S6        30.17S
OSU AIRPORT    CLEAR     39  20  46 S10       30.16R
BOLTON FIELD   CLEAR     36  22  56 S7        30.17S
RICKENBACK AFB CLEAR     37  19  49 S7        30.18R
NEWARK         PTCLDY    36  19  50 S6        30.17R
MARION         CLEAR     36  21  54 S13       30.14R
LANCASTER      CLOUDY    38  20  48 SE3       30.19R
ZANESVILLE     PTCLDY    36  16  44 S6        30.19R
NEW PHILLY     NOT AVBL
$$



USA.gov is the U.S. government's official web portal to all federal, state and local government web resources and services.